Location: Peterborough
(44.3091°N, 78.3197°W)
Time: 18:20:00
(UTC-04:00)

Vanguard 2 Rocket - Pass Details

Date: 30 March 2023
Orbit: 554 x 3314 km, 32.9° (Epoch: 05 June)

Event Time Altitude Azimuth Distance (km) Brightness Sun altitude
Rises 22:00:12 0° 257° (WSW) 3,637 10.6 -24.6°
Reaches altitude 10° 22:02:32 10° 249° (WSW) 2,947 9.9 -24.9°
Maximum altitude 22:09:17 38° 183° (S) 2,204 8.5 -25.9°
Enters shadow 22:11:07 35° 162° (SSE) 2,456 8.6 -26.2°
